#timestamp,LO_Frequency,Hit,StdDev 
1589464815.0,286046996.8,P
1589464815.9,286046996.8,Y
1589464835.8,286047000.7,P
1589464855.6,286047002.3,N
1589464875.4,286047002.1,N
1589464895.3,286047001.7,N
1589464915.1,286047004.0,N
1589464935.9,286047002.8,N
1589464955.7,286047000.9,N
1589464975.5,286046998.2,N
1589464995.4,286046997.2,N
1589465015.2,286046997.3,N
1589465035.0,286046998.7,N
1589465035.9,286046998.7,N
1589465055.8,286047000.3,N
1589465075.6,286047001.1,N
1589465095.5,286047001.1,N
1589465115.3,286046998.5,N
1589465135.1,286046999.1,N
1589465155.9,286047001.2,N
1589465175.7,286047001.0,N
1589465195.5,286047000.3,N
1589465215.4,286047000.8,N
1589465235.2,286046998.5,N
1589465255.1,286046996.6,N
1589465256.0,286046996.6,N
1589465275.8,286046999.6,N
1589465295.6,286046997.0,N
1589465315.5,286047000.8,N
1589465335.3,286047000.5,N
1589465355.2,286047000.8,N
1589465375.9,286046998.6,N
1589465395.7,286046999.0,N
1589465415.6,286046999.5,N
1589465435.4,286047000.4,N
1589465455.2,286046998.3,N
1589465475.1,286047000.8,N
1589465476.0,286047000.8,N
1589465495.8,286047000.0,N
1589465515.7,286047001.9,N
1589465535.5,286047004.3,N
1589465555.3,286047003.7,N
1589465575.2,286047001.9,N
1589465595.0,286047001.8,N
1589465595.9,286047001.8,N
1589465615.8,286047003.5,N
1589465635.6,286047003.4,N
1589465655.4,286047005.5,N
1589465675.3,286047005.5,N
1589465695.1,286047003.6,N
1589465715.8,286047005.3,N
1589465735.7,286047005.8,N
1589465755.5,286047004.5,N
1589465775.4,286047006.6,N
1589465795.2,286047008.1,N
1589465815.0,286047006.5,N
1589465815.9,286047006.5,N
1589465835.8,286047007.4,N
1589465855.6,286047006.9,N
1589465875.5,286047005.0,N
1589465895.3,286047007.3,N
1589465915.1,286047005.0,N
1589465935.9,286047009.1,Y
1589465955.7,286047004.1,P
1589465975.6,286047000.2,N
1589465995.4,286047003.9,N
1589466015.2,286047002.0,N
1589466035.1,286046999.8,N
1589466036.0,286046999.8,N
1589466055.8,286047000.7,N
1589466075.6,286047000.4,N
1589466095.5,286047000.2,N
1589466115.3,286046998.5,N
1589466135.2,286047002.8,N
1589466155.9,286046997.9,N
1589466175.7,286046999.4,N
1589466195.6,286046999.7,N
1589466215.4,286046999.7,N
1589466235.3,286047002.5,N
1589466255.1,286047003.1,N
1589466256.0,286047003.1,N
1589466275.8,286047004.1,N
1589466295.7,286047006.0,Y
1589466315.5,286047001.6,P
1589466335.4,286047000.6,P
1589466355.2,286047000.3,N
1589466375.0,286047000.5,N
1589466375.9,286047000.5,N
1589466395.8,286046999.9,N
1589466415.6,286047002.8,Y
1589466435.5,286047000.9,P
1589466455.3,286047002.7,P
1589466475.1,286047000.7,N
1589466495.9,286047000.9,N
1589466515.7,286047001.2,N
1589466535.6,286047002.1,N
1589466555.4,286047003.1,Y
1589466575.2,286047000.6,P
1589466595.1,286046997.5,P
1589466596.0,286046997.5,N
1589466615.8,286046996.6,N
1589466635.7,286046996.9,N
1589466655.5,286046999.2,N
1589466675.3,286046999.6,N
1589466695.2,286046999.1,N
1589466715.0,286047000.5,N
1589466715.9,286047000.5,N
1589466735.7,286047002.8,N
1589466755.6,286047002.0,N
1589466775.4,286047000.3,N
1589466795.3,286046999.1,N
1589466815.1,286047002.4,N
1589466816.0,286047002.4,N
1589466835.8,286047004.1,N
1589466855.7,286047006.0,N
1589466875.5,286047001.0,N
1589466895.4,286047000.9,N
1589466915.2,286047004.8,N
1589466935.0,286047002.3,N
1589466935.9,286047002.3,N
1589466955.8,286046999.9,N
1589466975.6,286047000.1,N
1589466995.5,286046998.8,N
1589467015.3,286046996.8,N
1589467035.1,286046997.5,N
1589467055.9,286046999.1,N
1589467075.7,286046998.1,N
1589467095.5,286047000.6,N
1589467115.4,286047001.3,N
1589467135.2,286047001.5,N
1589467155.1,286047000.5,N
1589467156.0,286047000.5,N
1589467175.8,286047000.0,N
1589467195.6,286047000.7,N
1589467215.5,286046998.5,N
1589467235.3,286047001.7,N
1589467255.2,286047003.9,N
1589467275.9,286047001.4,N
1589467295.7,286046999.9,N
1589467315.6,286046998.3,N
1589467335.4,286046999.9,N
1589467355.3,286046998.6,N
1589467375.1,286047001.1,N
1589467376.0,286047001.1,N
1589467395.8,286046997.1,N
1589467415.7,286046996.1,N
1589467435.5,286046995.3,N
1589467455.3,286046998.8,N
1589467475.2,286046998.9,N
1589467495.0,286047001.7,N
1589467495.9,286047001.7,N
1589467515.8,286047000.2,N
1589467535.6,286047000.0,N
1589467555.4,286047002.4,N
1589467575.3,286047000.0,N
1589467595.1,286047001.8,N
1589467615.9,286047001.3,N
1589467635.7,286047001.3,N
1589467655.5,286047001.8,N
1589467675.4,286047002.3,N
1589467695.2,286047002.3,N
1589467715.0,286047002.1,N
1589467716.0,286047002.1,N
1589467735.8,286047003.4,N
1589467755.6,286047005.7,N
1589467775.5,286047002.3,N
1589467795.3,286047001.2,N
1589467815.1,286046998.1,N
1589467835.9,286047001.0,N
1589467855.7,286047002.6,N
1589467875.6,286047001.4,N
1589467895.4,286047001.1,N
1589467915.2,286046999.3,N
1589467935.1,286047000.9,N
1589467936.0,286047000.9,N
1589467955.8,286046999.7,N
1589467975.6,286046999.7,N
1589467995.5,286047000.3,N
1589468015.3,286047000.5,N
1589468035.2,286047001.5,N
1589468055.1,286047002.6,N
1589468075.9,286047004.0,N
1589468095.7,286047003.1,N
1589468115.6,286047005.5,Y
1589468135.4,286047001.7,P
1589468155.2,286047004.1,P
1589468175.1,286047000.0,N
1589468176.0,286047000.0,N
1589468195.8,286046999.6,N
1589468215.7,286046998.2,N
1589468235.5,286047000.5,N
1589468255.3,286046999.0,N
1589468275.2,286046998.2,N
1589468295.0,286046998.5,N
1589468295.9,286046998.5,N
1589468315.8,286047000.5,N
1589468335.6,286047000.6,N
1589468355.4,286047001.9,N
1589468375.3,286047000.3,N
1589468395.1,286047000.3,N
